Погода в Чойбалсане

Монголия     48°04′13″N   114°31′36″E
темп.,
°C
ветер,
м/с
пор.,
м/с
влажн.,
%
обл.,
%
осадки,
мм/ч
давл.,
гПа
погр.,
м
10 августа, ср
ср1023:00+15з454739 0.0 100660
02:00+14з594997 0.0 1006131
05:00+13зсз4652100 0.0 100695
08:00+18сз5939100 0.0 1007673
11:00+22сз57275 0.0 10051588
14:00+25сз67224 0.0 10032053
17:00+25ссз56245 0.0 10032080
20:00+17ссв334026 0.0 100416
11 августа, чт
чт1123:00+14всв22485 0.0 100511
02:00+12ююв11585 0.0 100610
05:00+11в0066100 0.0 100611
08:00+16вюв114990 0.0 100733
11:00+21с1136100 0.0 1006604
14:00+20зсз774299 0.0 1007538
17:00+17ссв4861100 0.0 1007236
20:00+17зсз2259100 0.0 100830
12 августа, пт
пт1223:00+16з346473 0.0 100874
02:00+13з33760 0.0 100842
05:00+12зюз337612 0.0 100828
08:00+18зсз45595 0.0 1008327
11:00+24сз33405 0.0 10071419
14:00+27зсз562998 0.0 10043050
17:00+23с563756 0.0 1004730
20:00+20св344521 0.0 100560
13 августа, сб
сб1323:00+15св335872 0.0 100725
02:00+12ю0071100 0.0 100711
05:00+12ссз117382 0.0 100710
08:00+19всв1146100 0.0 1007272
11:00+23вюв1134100 0.0 10051134
14:00+22з5340100 0.1 10051069
17:00+18ююз2369100 0.7 100567
20:00+17зюз1176100 0.9 100511
14 августа, вс
вс1423:00+15с3592100 1.3 1005138
02:00+14ссз2597100 5.3 1005181
05:00+15вюв3497100 2.9 1004121
08:00+15ссв2394100 4.9 1004188
11:00+14с2296100 5.8 1004152
14:00+18зсз348049 6.3 1003630
17:00+20с346665 0.8 10031107
20:00+15всв11834 2.6 100511